• Join FlightAware (Why Join?)
  • Login
  • US Flag GB Flag 
07:53 EST


 

Airport Tracker/Info


-or-


 

Live Flight TrackerFlight Track Log ✈ N97FG ✈ 07-May-2013 ✈ MMIO / SLW - KPTK

Flight Track Log - Related Links

Times and Time Zones

All times are in EDT time to prevent confusion due to time zone crossing. See the N97FG flight status page for this flight to view local times or setup timezone preferences in your user account.

Time Position Orientation Groundspeed Altitude Reporting Facility
EDT Latitude Longitude Course Direction KTS MPH feet Rate Location/Type
15:30 26.3622 -99.3864 36° Northeast 437 503 29,900  Level Houston Center
15:31 26.4572 -99.2983 40° Northeast 444 511 30,900 1,020 Climbing Houston Center
15:32 26.5736 -99.1964 38° Northeast 444 511 32,100 1,020 Climbing Houston Center
15:34 26.6694 -99.1061 40° Northeast 450 518 33,100 960 Climbing Houston Center
15:35 26.7667 -99.0169 39° Northeast 452 520 34,100 960 Climbing Houston Center
15:36 26.8631 -98.9281 39° Northeast 452 520 35,100 900 Climbing Houston Center
15:37 26.9589 -98.8381 40° Northeast 451 519 36,000 960 Climbing Houston Center
15:38 27.0731 -98.7319 40° Northeast 449 517 37,200 1,020 Climbing Houston Center
15:39 27.1675 -98.6428 40° Northeast 447 514 38,200 960 Climbing Houston Center
15:40 27.2611 -98.5564 39° Northeast 442 509 39,200 960 Climbing Houston Center
15:41 27.3528 -98.4692 40° Northeast 438 504 40,200 780 Climbing Houston Center
15:42 27.4439 -98.3839 40° Northeast 433 498 40,900 360 Climbing Houston Center
15:43 27.5539 -98.2786 40° Northeast 434 499 41,000  Climbing Houston Center
15:44 27.6503 -98.1886 40° Northeast 446 513 41,000  Level Houston Center
15:45 27.7492 -98.0961 40° Northeast 460 529 41,000  Level Houston Center
15:46 27.8503 -98.0017 40° Northeast 471 542 41,000  Level Houston Center
15:47 27.9494 -97.9044 41° Northeast 473 544 41,000  Level Houston Center
15:48 28.0722 -97.7892 40° Northeast 477 549 41,000  Level Houston Center
15:49 28.1631 -97.7044 39° Northeast 477 549 41,000  Level Houston Center
15:50 28.2842 -97.5875 40° Northeast 476 548 41,000  Level Houston Center
15:51 28.3858 -97.4906 40° Northeast 475 547 41,000 -60 Level Houston Center
15:52 28.4872 -97.3925 40° Northeast 479 551 40,900  Descending Houston Center
15:53 28.5889 -97.2958 40° Northeast 477 549 41,000  Climbing Houston Center
15:54 28.6911 -97.1975 40° Northeast 480 552 41,000 -60 Level Houston Center
15:55 28.7908 -97.0994 41° Northeast 478 550 40,900  Descending Houston Center
15:56 28.9133 -96.9808 40° Northeast 481 554 41,000  Climbing Houston Center
15:57 29.0139 -96.8817 41° Northeast 481 554 41,000  Level Houston Center
15:58 29.1128 -96.7831 41° Northeast 479 551 41,000  Level Houston Center
15:59 29.2117 -96.6847 41° Northeast 480 552 41,000  Level Houston Center
16:00 29.3314 -96.5689 40° Northeast 478 550 41,000  Level Houston Center
16:01 29.4306 -96.4717 40° Northeast 474 545 41,000  Level Houston Center
16:02 29.5311 -96.3694 41° Northeast 481 554 41,000  Level Houston Center
16:04 29.6317 -96.2708 40° Northeast 479 551 41,000  Level Houston Center
16:05 29.7311 -96.1717 41° Northeast 476 548 41,000  Level Houston Center
16:06 29.8492 -96.0536 41° Northeast 471 542 41,000  Level Houston Center
16:07 29.9522 -95.9522 40° Northeast 477 549 41,000  Level Houston Center
16:08 30.0525 -95.8517 41° Northeast 477 549 41,000  Level Houston Center
16:09 30.1522 -95.7511 41° Northeast 474 545 41,000  Level Houston Center
16:10 30.2525 -95.6519 40° Northeast 473 544 41,000  Level Houston Center
16:11 30.3506 -95.5517 41° Northeast 472 543 41,000  Level Houston Center
16:12 30.4500 -95.4489 42° Northeast 476 548 41,000  Level Houston Center
16:13 30.5669 -95.3306 41° Northeast 471 542 41,000  Level Houston Center
16:14 30.6664 -95.2278 42° Northeast 474 545 41,000  Level Houston Center
16:15 30.7647 -95.1264 42° Northeast 472 543 41,000  Level Houston Center
16:16 30.8642 -95.0258 41° Northeast 472 543 41,000  Level Houston Center
16:17 30.9831 -94.9028 42° Northeast 476 548 41,000  Level Houston Center
16:18 31.0247 -94.8608 41° Northeast 476 548 41,000  Level Fort Worth Center
16:19 31.1331 -94.7439 43° Northeast 476 548 41,000  Level Fort Worth Center
16:20 31.2461 -94.6628 32° Northeast 476 548 41,000  Level Fort Worth Center
16:21 31.3569 -94.5867 30° Northeast 471 542 41,000  Level Fort Worth Center
16:22 31.4719 -94.5028 32° Northeast 470 541 41,000  Level Fort Worth Center
16:23 31.5831 -94.4261 30° Northeast 470 541 41,000  Level Fort Worth Center
16:24 31.6919 -94.3494 31° Northeast 459 528 41,000  Level Fort Worth Center
16:25 31.8047 -94.2722 30° Northeast 459 528 41,000  Level Fort Worth Center
16:26 31.9175 -94.1925 31° Northeast 464 534 41,000  Level Fort Worth Center
16:27 32.0283 -94.1150 31° Northeast 464 534 41,000  Level Fort Worth Center
16:28 32.1408 -94.0350 31° Northeast 464 534 41,000  Level Fort Worth Center
16:29 32.2514 -93.9497 33° Northeast 464 534 41,000  Level Fort Worth Center
16:30 32.3619 -93.8719 31° Northeast 464 534 41,000  Level Fort Worth Center
16:31 32.4725 -93.7936 31° Northeast 464 534 41,000  Level Fort Worth Center
16:32 32.5850 -93.7153 30° Northeast 464 534 41,000  Level Fort Worth Center
16:33 32.6972 -93.6342 31° Northeast 464 534 41,000  Level Fort Worth Center
16:34 32.8097 -93.5553 31° Northeast 464 534 41,000  Level Fort Worth Center
16:35 32.9219 -93.4736 31° Northeast 464 534 41,000  Level Fort Worth Center
16:36 33.0322 -93.3944 31° Northeast 464 534 41,000  Level Fort Worth Center
16:37 33.1464 -93.3122 31° Northeast 464 534 41,000  Level Fort Worth Center
16:38 33.2564 -93.2328 31° Northeast 464 534 41,000  Level Fort Worth Center
16:39 33.3686 -93.1503 32° Northeast 464 534 41,000  Level Fort Worth Center
16:40 33.4806 -93.0703 31° Northeast 464 534 41,000  Level Fort Worth Center
16:40 33.5433 -93.0264 30° Northeast 468 539 41,000  Level Memphis Center
16:41 33.6556 -92.9425 32° Northeast 463 533 41,000  Level Memphis Center
16:42 33.7700 -92.8611 31° Northeast 463 533 41,000  Level Memphis Center
16:43 33.8822 -92.7817 30° Northeast 463 533 41,000  Level Memphis Center
16:44 33.9944 -92.6972 32° Northeast 463 533 41,000  Level Memphis Center
16:45 34.1003 -92.6147 33° Northeast 463 533 41,000  Level Memphis Center
16:46 34.2122 -92.5322 31° Northeast 463 533 41,000  Level Memphis Center
16:47 34.3264 -92.4447 32° Northeast 463 533 41,000  Level Memphis Center
16:48 34.4383 -92.3592 32° Northeast 468 539 41,000  Level Memphis Center
16:49 34.5483 -92.2761 32° Northeast 468 539 41,000  Level Memphis Center
16:50 34.6581 -92.1928 32° Northeast 468 539 41,000  Level Memphis Center
16:51 34.7533 -92.0836 43° Northeast 468 539 41,000  Level Memphis Center
16:52 34.8489 -91.9614 46° Northeast 468 539 41,000  Level Memphis Center
16:53 34.9403 -91.8417 47° Northeast 473 544 41,000  Level Memphis Center
16:54 35.0292 -91.7264 47° Northeast 473 544 41,000  Level Memphis Center
16:55 35.1222 -91.6086 46° Northeast 473 544 41,000  Level Memphis Center
16:56 35.2150 -91.4881 47° Northeast 478 550 41,000  Level Memphis Center
16:57 35.3100 -91.3672 46° Northeast 478 550 41,000  Level Memphis Center
16:58 35.4028 -91.2461 47° Northeast 478 550 41,000  Level Memphis Center
16:59 35.4911 -91.1322 46° Northeast 472 543 41,000  Level Memphis Center
17:00 35.5856 -91.0106 46° Northeast 477 549 41,000  Level Memphis Center
17:01 35.6758 -90.8936 46° Northeast 477 549 41,000  Level Memphis Center
17:02 35.7617 -90.7714 49° Northeast 472 543 41,000  Level Memphis Center
17:03 35.8497 -90.6542 47° Northeast 472 543 41,000  Level Memphis Center
17:04 35.9394 -90.5339 47° Northeast 472 543 41,000  Level Memphis Center
17:05 36.0336 -90.4108 47° Northeast 472 543 41,000  Level Memphis Center
17:06 36.1211 -90.2953 47° Northeast 472 543 41,000  Level Memphis Center
17:07 36.2064 -90.1794 48° Northeast 466 536 41,000  Level Memphis Center
17:08 36.2897 -90.0661 48° Northeast 449 517 41,000  Level Memphis Center
17:09 36.3769 -89.9497 47° Northeast 444 511 41,000  Level Memphis Center
17:10 36.4722 -89.8228 47° Northeast 449 517 41,000  Level Memphis Center
17:11 36.5614 -89.7008 48° Northeast 455 524 41,000  Level Memphis Center
17:12 36.6503 -89.5786 48° Northeast 460 529 41,000  Level Memphis Center
17:13 36.7411 -89.4558 47° Northeast 467 537 41,000  Level Memphis Center
17:14 36.8256 -89.3358 49° Northeast 467 537 41,000  Level Memphis Center
17:15 36.9142 -89.2153 47° Northeast 462 532 41,000  Level Memphis Center
17:16 36.9964 -89.0972 49° Northeast 462 532 41,000  Level Memphis Center
17:17 37.0825 -88.9789 48° Northeast 462 532 41,000  Level Memphis Center
17:18 37.1667 -88.8603 48° Northeast 462 532 41,000  Level Memphis Center
17:19 37.2525 -88.7386 48° Northeast 462 532 41,000  Level Memphis Center
17:20 37.3386 -88.6222 47° Northeast 462 532 41,000  Level Memphis Center
17:22 37.4900 -88.3956 50° Northeast 465 535 41,000  Level Indianapolis Center
17:23 37.5758 -88.2728 49° Northeast 465 535 41,000  Level Indianapolis Center
17:24 37.6744 -88.1308 49° Northeast 461 531 41,000  Level Indianapolis Center
17:25 37.7606 -88.0064 49° Northeast 464 534 41,000  Level Indianapolis Center
17:26 37.8475 -87.8806 49° Northeast 461 531 41,000  Level Indianapolis Center
17:27 37.9428 -87.7706 42° Northeast 465 535 41,000  Level Indianapolis Center
17:28 38.0550 -87.6878 30° Northeast 462 532 41,000  Level Indianapolis Center
17:29 38.1661 -87.6053 30° Northeast 461 531 41,000  Level Indianapolis Center
17:30 38.2803 -87.5231 29° Northeast 465 535 41,000  Level Indianapolis Center
17:32 38.3947 -87.4383 30° Northeast 467 537 41,000  Level Indianapolis Center
17:33 38.5092 -87.3528 30° Northeast 468 539 41,000  Level Indianapolis Center
17:34 38.6239 -87.2681 30° Northeast 468 539 41,000  Level Indianapolis Center
17:35 38.7611 -87.1658 30° Northeast 471 542 41,000  Level Indianapolis Center
17:36 38.8742 -87.0800 31° Northeast 468 539 41,000  Level Indianapolis Center
17:37 38.9881 -86.9961 30° Northeast 469 540 41,000  Level Indianapolis Center
17:38 39.1025 -86.9106 30° Northeast 472 543 41,000 -540 Level Indianapolis Center
17:39 39.2058 -86.8325 30° Northeast 463 533 40,000 -1,080 Descending Indianapolis Center
17:40 39.3317 -86.7375 30° Northeast 438 504 38,800 -1,080 Descending Indianapolis Center
17:41 39.4358 -86.6569 31° Northeast 437 503 37,800 -900 Descending Indianapolis Center
17:42 39.5453 -86.5744 30° Northeast 453 521 37,000 -780 Descending Indianapolis Center
17:43 39.6553 -86.4894 31° Northeast 457 526 36,200 -1,020 Descending Indianapolis Center
17:44 39.7706 -86.4003 31° Northeast 445 512 34,900 -1,320 Descending Indianapolis Center
17:45 39.8703 -86.3233 31° Northeast 436 502 33,500 -1,200 Descending Indianapolis Center
17:46 39.9331 -86.2739 31° Northeast 437 503 33,000 -360 Descending Chicago Center
17:47 40.0231 -86.1733 41° Northeast 428 493 33,000  Level Chicago Center
17:48 40.1189 -86.0706 39° Northeast 444 511 33,000  Level Chicago Center
17:49 40.2211 -85.9675 38° Northeast 459 528 33,000 -660 Level Chicago Center
17:50 40.3392 -85.8481 38° Northeast 453 521 31,700 -1,200 Descending Chicago Center
17:51 40.4347 -85.7500 38° Northeast 440 506 30,600 -1,080 Descending Chicago Center
17:52 40.5311 -85.6511 38° Northeast 440 506 29,500 -1,080 Descending Chicago Center
17:53 40.6333 -85.5472 38° Northeast 458 527 28,400 -1,440 Descending Chicago Center
17:54 40.7478 -85.4294 38° Northeast 479 551 26,600 -2,040 Descending Chicago Center
17:55 40.8433 -85.3269 39° Northeast 451 519 24,200 -1,920 Descending Chicago Center
17:56 40.9394 -85.2261 38° Northeast 444 511 22,700 -1,500 Descending Chicago Center
17:57 41.0825 -85.1464 23° Northeast 465 535 21,200 -840 Descending Chicago Center
17:58 41.2061 -85.1003 16° North 465 535 21,000 -180 Descending Chicago Center
17:59 41.3247 -85.0517 17° North 455 524 20,900 -960 Descending Chicago Center
18:00 41.4144 -84.9461 41° Northeast 436 502 19,100 -2,100 Descending Chicago Center
18:01 41.4944 -84.8344 46° Northeast 424 488 16,600 -2,700 Descending Chicago Center
18:02 41.5900 -84.6972 47° Northeast 423 487 13,600 -2,460 Descending Chicago Center
18:03 41.6681 -84.5839 47° Northeast 421 484 11,600 -1,680 Descending Chicago Center
18:04 41.7444 -84.4736 47° Northeast 412 474 10,200 -780 Descending Chicago Center
18:05 41.8200 -84.3650 47° Northeast 404 465 10,000 -180 Descending Chicago Center
18:06 41.8533 -84.3189 46° Northeast 404 465 10,000  Level Cleveland Center
18:06 41.8992 -84.2492 49° Northeast 394 453 10,000  Level Cleveland Center
18:07 41.9514 -84.1794 45° Northeast 270 311 10,000 -300 Level Cleveland Center
18:08 42.0142 -84.1103 39° Northeast 292 336 9,500 -960 Descending Cleveland Center
18:09 42.0839 -84.0806 18° North 284 327 8,100 -1,680 Descending Cleveland Center
18:10 42.1622 -84.0428 20° North 280 322 6,500 -1,500 Descending Cleveland Center
18:11 42.2339 -84.0103 19° North 260 299 5,100 -1,380 Descending Cleveland Center